Flag for U.S.A. Weather past 2 weeks in New Bedford, Massachusetts, U.S.A.

Now
72 °F

Sunny.


Feels Like: 76 °F
Forecast: 58 / 79 °F
Wind: 3 mph from North

Location: New Bedford Regional Airport

Current Time: Aug 28, 2015 at 11:02:53 AM

Latest Report: Aug 28, 2015 at 9:53 AM


Visibility: 10 mi

Pressure: 30.14 "Hg

Humidity: 59%

Dew point: 57 °F

Location of New BedfordLocation

Historic Weather in New Bedford — Graph

°F

New Bedford temperature yesterday

Maximum temperature yesterday: 80 °F (at 2:53 PM)
Minimum temperature yesterday: 58 °F (at 5:53 AM)
Average temperature yesterday: 69 °F

Past Weeks' High & Low Weather Summary

 TemperatureHumidityPressure
High89 °F (Aug 17, 12:53 PM)100% (Aug 22, 4:04 AM)30.15 "Hg (Aug 22, 4:04 AM)
Low56 °F (Aug 28, 3:53 AM)40% (Aug 14, 12:53 PM)29.85 "Hg (Aug 26, 3:53 AM)
Average74 °F79%30.01 "Hg
* Reported Aug 13 9:53 AM — Aug 28 9:53 AM, New Bedford, Weather by CustomWeather, © 2015

Note: Actual official high and low records may vary slightly from our data, if they occured in-between our weather recording intervals... More about our weather records

Advertising

New Bedford weather history for previous 24 hours

 ConditionsComfort  
Time TempWeatherWind HumidityBarometerVisibility
9:53 AM
Fri, Aug 28
72 °FSunny.3 mph59%30.14 "Hg10 mi
8:53 AM69 °FSunny.5 mph66%30.13 "Hg10 mi
7:53 AM65 °FSunny.No wind78%30.12 "Hg10 mi
6:53 AM56 °FClear.No wind97%30.11 "Hg10 mi
5:53 AM57 °FClear.No wind93%30.09 "Hg10 mi
4:53 AM57 °FClear.No wind93%30.09 "Hg10 mi
3:53 AM56 °FClear.No wind97%30.08 "Hg10 mi
2:53 AM57 °FClear.No wind93%30.07 "Hg10 mi
1:53 AM61 °FClear.No wind87%30.07 "Hg10 mi
12:53 AM62 °FClear.No wind80%30.07 "Hg10 mi
11:53 PM
Thu, Aug 27
66 °FClear.3 mph73%30.06 "Hg10 mi
10:53 PM65 °FClear.5 mph78%30.05 "Hg10 mi
9:53 PM64 °FClear.No wind81%30.04 "Hg10 mi
8:53 PM66 °FClear.No wind75%30.03 "Hg10 mi
7:53 PM68 °FSunny.3 mph68%30.01 "Hg10 mi
6:53 PM74 °FSunny.7 mph56%29.99 "Hg10 mi
5:53 PM77 °FSunny.7 mph48%29.97 "Hg10 mi
4:53 PM79 °FSunny.14 mph44%29.96 "Hg10 mi
3:53 PM79 °FScattered clouds.13 mph44%29.96 "Hg10 mi
2:53 PM80 °FScattered clouds.12 mph42%29.97 "Hg10 mi
1:53 PM79 °FSunny.7 mph45%29.98 "Hg10 mi
12:53 PM79 °FSunny.7 mph44%29.98 "Hg10 mi
11:53 AM77 °FSunny.8 mph47%29.99 "Hg10 mi
Weather by CustomWeather, © 2015

See weather overviewHow to use our weather pages